#timestamp,LO_Frequency,Hit,StdDev 
1621267215.9,286047000.9,N
1621267235.7,286047002.8,N
1621267255.5,286046998.5,N
1621267275.4,286046998.1,N
1621267295.2,286047000.5,N
1621267315.1,286046998.2,N
1621267316.0,286046998.2,N
1621267335.8,286047000.2,N
1621267355.6,286047001.5,N
1621267375.5,286047002.7,N
1621267395.3,286047001.2,N
1621267415.1,286047000.0,N
1621267435.9,286047000.4,N
1621267455.7,286046996.5,N
1621267475.6,286046998.6,N
1621267495.4,286046999.9,N
1621267515.2,286047002.5,N
1621267535.1,286047000.9,N
1621267536.0,286047000.9,N
1621267555.8,286046999.9,N
1621267575.7,286047001.6,N
1621267595.5,286047001.6,N
1621267615.3,286047002.6,N
1621267635.2,286047002.0,N
1621267655.9,286047001.6,N
1621267675.7,286046999.7,N
1621267695.6,286046999.7,N
1621267715.4,286047002.3,N
1621267735.3,286047000.2,N
1621267755.1,286047002.3,N
1621267756.0,286047002.3,N
1621267775.8,286047000.0,N
1621267795.7,286046998.9,N
1621267815.5,286046998.5,N
1621267835.3,286047000.0,N
1621267855.2,286046999.9,N
1621267875.0,286046999.7,N
1621267875.9,286046999.7,N
1621267895.8,286047000.1,N
1621267915.6,286046998.1,N
1621267935.4,286046996.6,N
1621267955.3,286046999.0,N
1621267975.1,286046998.9,N
1621267995.8,286046998.8,N
1621268015.7,286047000.5,N
1621268035.5,286047000.7,N
1621268055.3,286046999.0,N
1621268075.2,286046997.0,N
1621268095.0,286046996.6,N
1621268095.9,286046996.6,N
1621268115.8,286046998.6,N
1621268135.6,286047001.8,N
1621268155.4,286046999.8,N
1621268175.3,286046998.1,N
1621268195.1,286047000.6,N
1621268215.9,286047000.2,N
1621268235.7,286046999.4,N
1621268255.5,286046996.8,N
1621268275.4,286046999.3,N
1621268295.2,286046998.3,N
1621268315.0,286046999.2,N
1621268315.9,286046999.2,N
1621268335.8,286047000.9,N
1621268355.6,286046999.1,N
1621268375.5,286046998.1,N
1621268395.3,286047002.7,N
1621268415.1,286047000.6,N
1621268435.9,286046999.7,N
1621268455.7,286047001.1,N
1621268475.5,286047001.8,N
1621268495.4,286047001.9,N
1621268515.2,286047000.3,N
1621268535.1,286046999.5,N
1621268536.0,286046999.5,N
1621268555.8,286046999.8,N
1621268575.6,286047003.5,N
1621268595.5,286047005.4,Y
1621268615.3,286047005.1,P
1621268635.2,286047006.0,N
1621268655.9,286047002.0,N
1621268675.7,286047004.3,N
1621268695.6,286047001.8,N
1621268715.4,286047000.6,N
1621268735.2,286047000.9,N
1621268755.1,286046996.7,N
1621268756.0,286046996.7,N
1621268775.8,286046996.9,N
1621268795.7,286046997.7,N
1621268815.5,286046997.9,N
1621268835.3,286047001.0,N
1621268855.2,286047000.4,N
1621268875.0,286047002.1,N
1621268875.9,286047002.1,N
1621268895.8,286047002.6,N
1621268915.6,286047003.8,N
1621268935.4,286047002.9,N
1621268955.3,286047003.4,N
1621268975.1,286047003.8,N
1621268995.8,286047002.0,N
1621269015.7,286047000.5,N
1621269035.5,286047000.1,N
1621269055.4,286046999.8,N
1621269075.2,286047002.8,N
1621269095.0,286046999.9,N
1621269095.9,286046999.9,N
1621269115.8,286047001.3,N
1621269135.6,286047002.8,N
1621269155.5,286047003.9,N
1621269175.3,286046999.9,N
1621269195.1,286047002.5,N
1621269215.9,286047001.1,N
1621269235.7,286046999.4,N
1621269255.5,286046998.9,N
1621269275.4,286046998.6,N
1621269295.2,286047000.8,N
1621269315.1,286047001.2,N
1621269316.0,286047001.2,N
1621269335.8,286047001.6,N
1621269355.6,286046999.9,N
1621269375.5,286046998.4,N
1621269395.3,286046999.2,N
1621269415.2,286046999.6,N
1621269435.9,286046998.3,N
1621269455.7,286047000.2,N
1621269475.6,286047004.0,N
1621269495.4,286047003.6,N
1621269515.3,286047002.6,N
1621269535.1,286047003.5,N
1621269555.8,286047004.2,N
1621269575.7,286047003.5,N
1621269595.5,286047002.5,N
1621269615.3,286047002.4,N
1621269635.2,286047001.9,N
1621269655.0,286047001.6,N
1621269655.9,286047001.6,N
1621269675.8,286047003.8,N
1621269695.6,286047002.0,N
1621269715.4,286047002.1,N
1621269735.3,286047002.1,N
1621269755.1,286047005.5,Y
1621269775.9,286047000.4,P
1621269795.7,286046998.3,P
1621269815.5,286046996.6,N
1621269835.4,286046999.0,N
1621269855.2,286046997.0,N
1621269875.0,286046998.3,N
1621269875.9,286046998.3,N
1621269895.8,286046998.2,N
1621269915.6,286046999.7,N
1621269935.5,286047000.4,N
1621269955.3,286046999.5,N
1621269975.1,286046998.2,N
1621269995.9,286046998.8,N
1621270015.7,286046998.3,N
1621270035.5,286046998.2,N
1621270055.4,286046998.4,N
1621270075.2,286046998.5,N
1621270095.0,286047002.2,N
1621270096.0,286047002.2,N
1621270115.8,286047000.4,N
1621270135.6,286047002.4,N
1621270155.5,286046998.1,N
1621270175.3,286047000.9,N
1621270195.1,286047000.7,N
1621270215.9,286047000.0,N
1621270235.7,286047000.2,N
1621270255.6,286047002.8,N
1621270275.4,286047002.8,N
1621270295.2,286046999.9,N
1621270315.1,286047000.4,N
1621270316.0,286047000.4,N
1621270335.8,286047000.4,N
1621270355.6,286047000.8,N
1621270375.5,286047000.9,N
1621270395.3,286046999.3,N
1621270415.2,286046996.5,N
1621270435.0,286047000.6,N
1621270435.9,286047000.6,N
1621270455.7,286047001.0,N
1621270475.6,286046998.2,N
1621270495.4,286046998.6,N
1621270515.3,286046998.7,N
1621270535.1,286047000.4,N
1621270536.0,286047000.4,N
1621270555.8,286046999.9,N
1621270575.7,286047002.7,N
1621270595.5,286047002.0,N
1621270615.4,286047002.3,N
1621270635.2,286047000.3,N
1621270655.0,286047000.5,N
1621270655.9,286047000.5,N
1621270675.8,286046998.2,N
1621270695.6,286047000.7,N
1621270715.4,286047002.8,N
1621270735.3,286047001.4,N
1621270755.1,286047002.6,N
1621270775.9,286047002.7,N
1621270795.7,286047002.4,N
